Time,TemperatureF,DewpointF,PressureIn,WindDirection,WindDirectionDegrees,WindSpeedMPH,WindSpeedGustMPH,Humidity,HourlyPrecipIn,Conditions,Clouds,dailyrainin,SolarRadiationWatts/m^2,SoftwareType,DateUTC
2013-04-23 00:10:00,48.4,29.6,30.35,SSE,161,7.0,7.0,48,0.00,,,0.00,0,Wunderground v.1.15,2013-04-23 04:10:00,
2013-04-23 00:20:00,48.6,29.8,30.35,SSE,154,8.0,8.0,48,0.00,,,0.00,0,Wunderground v.1.15,2013-04-23 04:20:00,
2013-04-23 00:30:00,48.5,30.7,30.35,SSE,157,7.0,7.0,50,0.00,,,0.00,0,Wunderground v.1.15,2013-04-23 04:30:00,
2013-04-23 00:40:00,48.3,30.5,30.35,SSE,159,8.0,8.0,50,0.00,,,0.00,0,Wunderground v.1.15,2013-04-23 04:40:00,
2013-04-23 00:50:00,48.3,31.0,30.35,SSE,166,9.0,9.0,51,0.00,,,0.00,0,Wunderground v.1.15,2013-04-23 04:50:00,
2013-04-23 01:00:00,48.1,30.8,30.35,South,190,9.0,12.0,51,0.00,,,0.00,0,Wunderground v.1.15,2013-04-23 05:00:00,
2013-04-23 01:10:00,48.2,31.9,30.35,South,189,12.0,12.0,53,0.00,,,0.00,0,Wunderground v.1.15,2013-04-23 05:10:00,
2013-04-23 01:20:00,48.1,31.8,30.35,SSE,168,11.0,15.0,53,0.00,,,0.00,0,Wunderground v.1.15,2013-04-23 05:20:00,
2013-04-23 01:30:00,48.2,32.3,30.35,SSE,155,11.0,11.0,54,0.00,,,0.00,0,Wunderground v.1.15,2013-04-23 05:30:00,
2013-04-23 01:40:00,47.9,32.0,30.35,South,185,9.0,9.0,54,0.00,,,0.00,0,Wunderground v.1.15,2013-04-23 05:40:00,
2013-04-23 01:50:00,47.4,32.0,30.35,SSE,157,7.0,7.0,55,0.00,,,0.00,0,Wunderground v.1.15,2013-04-23 05:50:00,
2013-04-23 02:00:00,46.7,31.8,30.35,South,170,6.0,6.0,56,0.00,,,0.00,0,Wunderground v.1.15,2013-04-23 06:00:00,
2013-04-23 02:10:00,46.5,32.1,30.35,South,171,6.0,6.0,57,0.00,,,0.00,0,Wunderground v.1.15,2013-04-23 06:10:00,
2013-04-23 02:20:00,45.8,31.9,30.34,South,172,5.0,5.0,58,0.00,,,0.00,0,Wunderground v.1.15,2013-04-23 06:20:00,
2013-04-23 02:30:00,45.7,32.2,30.34,South,183,6.0,6.0,59,0.00,,,0.00,0,Wunderground v.1.15,2013-04-23 06:30:00,
2013-04-23 02:40:00,45.6,32.1,30.34,South,169,6.0,6.0,59,0.00,,,0.00,0,Wunderground v.1.15,2013-04-23 06:40:00,
2013-04-23 02:50:00,45.4,32.3,30.34,SSE,155,5.0,5.0,60,0.00,,,0.00,0,Wunderground v.1.15,2013-04-23 06:50:00,
2013-04-23 03:00:00,44.9,32.3,30.34,SSE,157,5.0,6.0,61,0.00,,,0.00,0,Wunderground v.1.15,2013-04-23 07:00:00,
2013-04-23 03:10:00,44.5,32.3,30.34,SSE,154,5.0,5.0,62,0.00,,,0.00,0,Wunderground v.1.15,2013-04-23 07:10:00,
2013-04-23 03:20:00,44.2,32.4,30.34,SSE,164,5.0,6.0,63,0.00,,,0.00,0,Wunderground v.1.15,2013-04-23 07:20:00,
2013-04-23 03:40:00,43.3,32.3,30.33,SSE,167,5.0,6.0,65,0.00,,,0.00,0,Wunderground v.1.15,2013-04-23 07:40:00,
2013-04-23 03:50:00,43.0,32.0,30.33,SSE,148,4.0,4.0,65,0.00,,,0.00,0,Wunderground v.1.15,2013-04-23 07:50:00,
2013-04-23 04:00:00,42.6,31.7,30.33,SSE,155,4.0,5.0,65,0.00,,,0.00,0,Wunderground v.1.15,2013-04-23 08:00:00,
2013-04-23 04:10:00,42.5,31.9,30.33,SSE,152,6.0,6.0,66,0.00,,,0.00,0,Wunderground v.1.15,2013-04-23 08:10:00,
2013-04-23 04:20:00,42.3,32.1,30.33,South,170,5.0,8.0,67,0.00,,,0.00,0,Wunderground v.1.15,2013-04-23 08:20:00,
2013-04-23 04:30:00,42.1,32.3,30.34,South,169,6.0,6.0,68,0.00,,,0.00,0,Wunderground v.1.15,2013-04-23 08:30:00,
2013-04-23 04:40:00,41.8,32.0,30.33,SSE,165,5.0,5.0,68,0.00,,,0.00,0,Wunderground v.1.15,2013-04-23 08:40:00,
2013-04-23 04:50:00,41.6,32.2,30.33,SSE,157,4.0,4.0,69,0.00,,,0.00,0,Wunderground v.1.15,2013-04-23 08:50:00,
2013-04-23 05:00:00,41.4,32.0,30.33,South,169,5.0,6.0,69,0.00,,,0.00,0,Wunderground v.1.15,2013-04-23 09:00:00,
2013-04-23 05:10:00,41.3,31.9,30.33,SSE,153,6.0,6.0,69,0.00,,,0.00,0,Wunderground v.1.15,2013-04-23 09:10:00,
2013-04-23 05:20:00,41.0,32.0,30.33,SSE,154,6.0,6.0,70,0.00,,,0.00,0,Wunderground v.1.15,2013-04-23 09:20:00,
2013-04-23 05:30:00,40.9,31.9,30.33,SSE,159,6.0,6.0,70,0.00,,,0.00,0,Wunderground v.1.15,2013-04-23 09:30:00,
2013-04-23 05:50:00,40.4,31.7,30.32,SSE,148,6.0,6.0,71,0.00,,,0.00,0,Wunderground v.1.15,2013-04-23 09:50:00,
2013-04-23 06:00:00,40.0,31.4,30.31,SSE,167,5.0,6.0,71,0.00,,,0.00,0,Wunderground v.1.15,2013-04-23 10:00:00,
2013-04-23 06:10:00,39.8,31.2,30.31,SSE,150,6.0,6.0,71,0.00,,,0.00,0,Wunderground v.1.15,2013-04-23 10:10:00,
2013-04-23 06:20:00,39.6,31.0,30.31,SSE,157,6.0,6.0,71,0.00,,,0.00,9,Wunderground v.1.15,2013-04-23 10:20:00,
2013-04-23 06:30:00,39.4,30.8,30.31,SE,137,6.0,7.0,71,0.00,,,0.00,14,Wunderground v.1.15,2013-04-23 10:30:00,
2013-04-23 06:40:00,39.3,30.7,30.31,SE,134,6.0,6.0,71,0.00,,,0.00,21,Wunderground v.1.15,2013-04-23 10:40:00,
2013-04-23 06:50:00,39.4,30.8,30.31,SSE,160,7.0,7.0,71,0.00,,,0.00,37,Wunderground v.1.15,2013-04-23 10:50:00,
2013-04-23 07:00:00,39.7,31.1,30.31,SE,144,8.0,8.0,71,0.00,,,0.00,60,Wunderground v.1.15,2013-04-23 11:00:00,
2013-04-23 07:10:00,40.2,30.8,30.31,SSE,158,8.0,9.0,69,0.00,,,0.00,90,Wunderground v.1.15,2013-04-23 11:10:00,
2013-04-23 07:20:00,40.6,30.9,30.31,SE,140,9.0,11.0,68,0.00,,,0.00,128,Wunderground v.1.15,2013-04-23 11:20:00,
2013-04-23 07:30:00,41.2,31.1,30.31,SSE,151,8.0,10.0,67,0.00,,,0.00,167,Wunderground v.1.15,2013-04-23 11:30:00,
2013-04-23 07:40:00,41.8,31.6,30.31,SE,144,9.0,9.0,67,0.00,,,0.00,211,Wunderground v.1.15,2013-04-23 11:40:00,
2013-04-23 07:50:00,42.2,31.3,30.31,SSE,150,8.0,13.0,65,0.00,,,0.00,255,Wunderground v.1.15,2013-04-23 11:50:00,
2013-04-23 08:00:00,42.6,31.7,30.30,SE,133,9.0,13.0,65,0.00,,,0.00,297,Wunderground v.1.15,2013-04-23 12:00:00,
2013-04-23 08:10:00,43.2,31.8,30.30,South,173,9.0,9.0,64,0.00,,,0.00,332,Wunderground v.1.15,2013-04-23 12:10:00,
2013-04-23 08:20:00,43.6,32.6,30.30,SSE,148,9.0,9.0,65,0.00,,,0.00,369,Wunderground v.1.15,2013-04-23 12:20:00,
2013-04-23 08:30:00,44.4,33.4,30.29,South,172,10.0,10.0,65,0.00,,,0.00,408,Wunderground v.1.15,2013-04-23 12:30:00,
2013-04-23 08:40:00,44.9,33.1,30.29,SE,128,10.0,14.0,63,0.00,,,0.00,441,Wunderground v.1.15,2013-04-23 12:40:00,
2013-04-23 08:50:00,45.1,33.6,30.28,SSE,162,12.0,14.0,64,0.00,,,0.00,478,Wunderground v.1.15,2013-04-23 12:50:00,
2013-04-23 09:00:00,45.6,33.7,30.28,SSE,154,13.0,13.0,63,0.00,,,0.00,513,Wunderground v.1.15,2013-04-23 13:00:00,
2013-04-23 09:10:00,46.3,34.4,30.27,SE,137,11.0,11.0,63,0.00,,,0.00,548,Wunderground v.1.15,2013-04-23 13:10:00,
2013-04-23 09:20:00,46.4,34.5,30.27,SE,126,12.0,12.0,63,0.00,,,0.00,580,Wunderground v.1.15,2013-04-23 13:20:00,
2013-04-23 09:30:00,47.0,34.6,30.26,SSE,155,10.0,14.0,62,0.00,,,0.00,615,Wunderground v.1.15,2013-04-23 13:30:00,
2013-04-23 09:40:00,47.3,35.3,30.26,SE,132,10.0,13.0,63,0.00,,,0.00,647,Wunderground v.1.15,2013-04-23 13:40:00,
2013-04-23 09:50:00,47.4,33.8,30.25,South,175,11.0,11.0,59,0.00,,,0.00,677,Wunderground v.1.15,2013-04-23 13:50:00,
2013-04-23 10:00:00,47.8,35.0,30.25,SSE,158,12.0,12.0,61,0.00,,,0.00,705,Wunderground v.1.15,2013-04-23 14:00:00,
2013-04-23 10:10:00,48.0,34.8,30.25,SSE,166,12.0,12.0,60,0.00,,,0.00,738,Wunderground v.1.15,2013-04-23 14:10:00,
2013-04-23 10:20:00,48.7,35.0,30.25,SSE,160,11.0,11.0,59,0.00,,,0.00,765,Wunderground v.1.15,2013-04-23 14:20:00,
2013-04-23 10:30:00,49.2,35.9,30.24,SE,131,10.0,11.0,60,0.00,,,0.00,789,Wunderground v.1.15,2013-04-23 14:30:00,
2013-04-23 10:40:00,49.4,35.7,30.24,SSE,166,11.0,12.0,59,0.00,,,0.00,817,Wunderground v.1.15,2013-04-23 14:40:00,
2013-04-23 10:50:00,50.2,35.1,30.24,SE,143,12.0,17.0,56,0.00,,,0.00,838,Wunderground v.1.15,2013-04-23 14:50:00,
2013-04-23 11:00:00,50.8,36.1,30.24,SE,138,11.0,13.0,57,0.00,,,0.00,863,Wunderground v.1.15,2013-04-23 15:00:00,
2013-04-23 11:10:00,50.8,37.0,30.23,South,189,11.0,11.0,59,0.00,,,0.00,882,Wunderground v.1.15,2013-04-23 15:10:00,
2013-04-23 11:20:00,51.4,35.8,30.23,South,180,11.0,11.0,55,0.00,,,0.00,896,Wunderground v.1.15,2013-04-23 15:20:00,
2013-04-23 11:30:00,51.6,37.3,30.22,SE,134,11.0,11.0,58,0.00,,,0.00,916,Wunderground v.1.15,2013-04-23 15:30:00,
2013-04-23 11:40:00,52.5,37.2,30.22,SE,145,10.0,10.0,56,0.00,,,0.00,937,Wunderground v.1.15,2013-04-23 15:40:00,
2013-04-23 11:50:00,52.1,36.9,30.21,SSE,148,10.0,12.0,56,0.00,,,0.00,949,Wunderground v.1.15,2013-04-23 15:50:00,
2013-04-23 12:00:00,52.6,36.9,30.21,SSE,148,10.0,10.0,55,0.00,,,0.00,956,Wunderground v.1.15,2013-04-23 16:00:00,
2013-04-23 12:10:00,53.3,37.1,30.20,SSE,152,12.0,16.0,54,0.00,,,0.00,969,Wunderground v.1.15,2013-04-23 16:10:00,
2013-04-23 12:20:00,53.7,37.0,30.20,SE,141,12.0,17.0,53,0.00,,,0.00,977,Wunderground v.1.15,2013-04-23 16:20:00,
2013-04-23 12:30:00,54.2,38.8,30.19,SE,146,11.0,11.0,56,0.00,,,0.00,986,Wunderground v.1.15,2013-04-23 16:30:00,
2013-04-23 12:40:00,54.3,37.5,30.19,SSE,152,11.0,11.0,53,0.00,,,0.00,990,Wunderground v.1.15,2013-04-23 16:40:00,
2013-04-23 12:50:00,54.9,37.1,30.20,South,183,10.0,10.0,51,0.00,,,0.00,993,Wunderground v.1.15,2013-04-23 16:50:00,
2013-04-23 13:00:00,55.0,39.1,30.19,SSE,161,9.0,9.0,55,0.00,,,0.00,991,Wunderground v.1.15,2013-04-23 17:00:00,
2013-04-23 13:10:00,56.3,39.9,30.19,SSE,168,11.0,11.0,54,0.00,,,0.00,997,Wunderground v.1.15,2013-04-23 17:10:00,
2013-04-23 13:20:00,56.3,38.4,30.19,ESE,122,9.0,14.0,51,0.00,,,0.00,993,Wunderground v.1.15,2013-04-23 17:20:00,
2013-04-23 13:30:00,56.3,37.9,30.18,SE,137,10.0,10.0,50,0.00,,,0.00,988,Wunderground v.1.15,2013-04-23 17:30:00,
2013-04-23 13:40:00,56.8,38.9,30.18,SE,131,10.0,12.0,51,0.00,,,0.00,984,Wunderground v.1.15,2013-04-23 17:40:00,
2013-04-23 13:50:00,56.7,37.7,30.19,SE,142,10.0,12.0,49,0.00,,,0.00,977,Wunderground v.1.15,2013-04-23 17:50:00,
2013-04-23 14:00:00,58.1,38.5,30.19,ESE,104,7.0,9.0,48,0.00,,,0.00,969,Wunderground v.1.15,2013-04-23 18:00:00,
2013-04-23 14:10:00,57.5,37.9,30.18,SE,142,8.0,9.0,48,0.00,,,0.00,962,Wunderground v.1.15,2013-04-23 18:10:00,
2013-04-23 14:20:00,58.4,39.8,30.16,SE,134,9.0,10.0,50,0.00,,,0.00,949,Wunderground v.1.15,2013-04-23 18:20:00,
2013-04-23 14:30:00,58.4,38.8,30.16,SE,142,8.0,9.0,48,0.00,,,0.00,930,Wunderground v.1.15,2013-04-23 18:30:00,
2013-04-23 14:40:00,58.8,39.7,30.15,SSE,148,11.0,11.0,49,0.00,,,0.00,886,Wunderground v.1.15,2013-04-23 18:40:00,
2013-04-23 14:50:00,59.1,38.3,30.13,SE,132,11.0,11.0,46,0.00,,,0.00,821,Wunderground v.1.15,2013-04-23 18:50:00,
2013-04-23 15:00:00,59.0,38.2,30.13,SE,127,11.0,15.0,46,0.00,,,0.00,842,Wunderground v.1.15,2013-04-23 19:00:00,
2013-04-23 15:10:00,59.1,39.9,30.11,SE,137,12.0,12.0,49,0.00,,,0.00,784,Wunderground v.1.15,2013-04-23 19:10:00,
2013-04-23 15:20:00,59.1,38.9,30.10,East,94,12.0,12.0,47,0.00,,,0.00,780,Wunderground v.1.15,2013-04-23 19:20:00,
2013-04-23 15:30:00,59.5,39.8,30.10,SE,130,12.0,13.0,48,0.00,,,0.00,847,Wunderground v.1.15,2013-04-23 19:30:00,
2013-04-23 15:40:00,59.9,40.7,30.10,SE,126,12.0,13.0,49,0.00,,,0.00,795,Wunderground v.1.15,2013-04-23 19:40:00,
2013-04-23 15:50:00,60.0,40.2,30.11,SE,140,11.0,11.0,48,0.00,,,0.00,754,Wunderground v.1.15,2013-04-23 19:50:00,
2013-04-23 16:00:00,59.9,38.5,30.09,SE,124,11.0,11.0,45,0.00,,,0.00,737,Wunderground v.1.15,2013-04-23 20:00:00,
2013-04-23 16:10:00,60.4,41.7,30.09,SE,126,10.0,10.0,50,0.00,,,0.00,708,Wunderground v.1.15,2013-04-23 20:10:00,
2013-04-23 16:20:00,60.7,39.2,30.09,SE,146,10.0,11.0,45,0.00,,,0.00,680,Wunderground v.1.15,2013-04-23 20:20:00,
2013-04-23 16:30:00,60.2,39.3,30.07,SE,132,13.0,14.0,46,0.00,,,0.00,650,Wunderground v.1.15,2013-04-23 20:30:00,
2013-04-23 16:40:00,60.5,39.0,30.07,SSE,161,13.0,13.0,45,0.00,,,0.00,619,Wunderground v.1.15,2013-04-23 20:40:00,
2013-04-23 16:50:00,60.5,40.2,30.07,South,172,13.0,13.0,47,0.00,,,0.00,587,Wunderground v.1.15,2013-04-23 20:50:00,
2013-04-23 17:00:00,60.7,38.6,30.07,ESE,115,13.0,13.0,44,0.00,,,0.00,559,Wunderground v.1.15,2013-04-23 21:00:00,
2013-04-23 17:10:00,60.8,38.1,30.06,ESE,121,13.0,18.0,43,0.00,,,0.00,522,Wunderground v.1.15,2013-04-23 21:10:00,
2013-04-23 17:20:00,60.9,39.4,30.05,ESE,111,13.0,14.0,45,0.00,,,0.00,489,Wunderground v.1.15,2013-04-23 21:20:00,
2013-04-23 17:30:00,61.0,38.3,30.05,SSE,148,12.0,13.0,43,0.00,,,0.00,454,Wunderground v.1.15,2013-04-23 21:30:00,
2013-04-23 17:40:00,61.2,39.1,30.05,South,180,11.0,11.0,44,0.00,,,0.00,415,Wunderground v.1.15,2013-04-23 21:40:00,
2013-04-23 17:50:00,61.5,38.8,30.05,ESE,110,9.0,12.0,43,0.00,,,0.00,374,Wunderground v.1.15,2013-04-23 21:50:00,
2013-04-23 18:00:00,61.1,39.0,30.05,SE,127,10.0,12.0,44,0.00,,,0.00,330,Wunderground v.1.15,2013-04-23 22:00:00,
2013-04-23 18:10:00,61.1,38.4,30.04,SE,141,11.0,12.0,43,0.00,,,0.00,315,Wunderground v.1.15,2013-04-23 22:10:00,
2013-04-23 18:20:00,60.9,38.8,30.05,SE,130,11.0,11.0,44,0.00,,,0.00,279,Wunderground v.1.15,2013-04-23 22:20:00,
2013-04-23 18:30:00,60.9,38.2,30.05,South,171,10.0,10.0,43,0.00,,,0.00,236,Wunderground v.1.15,2013-04-23 22:30:00,
2013-04-23 18:40:00,60.5,37.9,30.05,SE,128,11.0,11.0,43,0.00,,,0.00,195,Wunderground v.1.15,2013-04-23 22:40:00,
2013-04-23 18:50:00,60.4,38.4,30.05,ESE,111,10.0,11.0,44,0.00,,,0.00,139,Wunderground v.1.15,2013-04-23 22:50:00,
2013-04-23 19:00:00,60.1,37.5,30.04,SE,136,10.0,12.0,43,0.00,,,0.00,62,Wunderground v.1.15,2013-04-23 23:00:00,
2013-04-23 19:10:00,59.7,37.7,30.04,ESE,119,9.0,9.0,44,0.00,,,0.00,37,Wunderground v.1.15,2013-04-23 23:10:00,
2013-04-23 19:20:00,59.2,37.9,30.03,ESE,118,8.0,9.0,45,0.00,,,0.00,30,Wunderground v.1.15,2013-04-23 23:20:00,
2013-04-23 19:30:00,58.7,38.0,30.03,ESE,117,8.0,8.0,46,0.00,,,0.00,23,Wunderground v.1.15,2013-04-23 23:30:00,
2013-04-23 19:40:00,58.3,37.0,30.02,SE,134,9.0,9.0,45,0.00,,,0.00,14,Wunderground v.1.15,2013-04-23 23:40:00,
2013-04-23 19:50:00,57.8,37.1,30.02,SE,127,8.0,8.0,46,0.00,,,0.00,7,Wunderground v.1.15,2013-04-23 23:50:00,
2013-04-23 20:00:00,57.4,37.3,30.02,ESE,115,8.0,8.0,47,0.00,,,0.00,0,Wunderground v.1.15,2013-04-24 00:00:00,
2013-04-23 20:10:00,56.9,37.4,30.02,ESE,110,7.0,7.0,48,0.00,,,0.00,0,Wunderground v.1.15,2013-04-24 00:10:00,
2013-04-23 20:20:00,56.6,37.1,30.02,SE,127,8.0,8.0,48,0.00,,,0.00,0,Wunderground v.1.15,2013-04-24 00:20:00,
2013-04-23 20:30:00,56.2,36.8,30.02,ESE,119,7.0,7.0,48,0.00,,,0.00,0,Wunderground v.1.15,2013-04-24 00:30:00,
2013-04-23 20:40:00,55.9,37.0,30.01,SE,132,7.0,7.0,49,0.00,,,0.00,0,Wunderground v.1.15,2013-04-24 00:40:00,
2013-04-23 20:50:00,55.5,36.6,30.01,SE,138,8.0,8.0,49,0.00,,,0.00,0,Wunderground v.1.15,2013-04-24 00:50:00,
2013-04-23 21:00:00,55.3,37.0,30.01,SE,144,7.0,8.0,50,0.00,,,0.00,0,Wunderground v.1.15,2013-04-24 01:00:00,
2013-04-23 21:10:00,55.3,37.0,30.01,SE,133,9.0,9.0,50,0.00,,,0.00,0,Wunderground v.1.15,2013-04-24 01:10:00,
2013-04-23 21:20:00,55.1,37.3,30.01,SE,134,8.0,10.0,51,0.00,,,0.00,0,Wunderground v.1.15,2013-04-24 01:20:00,
2013-04-23 21:30:00,54.9,36.6,30.00,SE,130,9.0,9.0,50,0.00,,,0.00,0,Wunderground v.1.15,2013-04-24 01:30:00,
2013-04-23 21:40:00,54.8,37.5,30.00,ESE,121,8.0,11.0,52,0.00,,,0.00,0,Wunderground v.1.15,2013-04-24 01:40:00,
2013-04-23 21:50:00,54.7,37.4,30.00,SSE,163,9.0,9.0,52,0.00,,,0.00,0,Wunderground v.1.15,2013-04-24 01:50:00,
2013-04-23 22:00:00,54.6,37.3,30.00,SE,142,7.0,7.0,52,0.00,,,0.00,0,Wunderground v.1.15,2013-04-24 02:00:00,
2013-04-23 22:10:00,54.3,37.5,30.00,SSE,155,6.0,6.0,53,0.00,,,0.00,0,Wunderground v.1.15,2013-04-24 02:10:00,
2013-04-23 22:20:00,54.2,36.9,29.99,SSE,163,8.0,8.0,52,0.00,,,0.00,0,Wunderground v.1.15,2013-04-24 02:20:00,
2013-04-23 22:30:00,54.1,37.3,29.99,SSE,160,7.0,7.0,53,0.00,,,0.00,0,Wunderground v.1.15,2013-04-24 02:30:00,
2013-04-23 22:40:00,54.0,37.2,29.98,SE,140,7.0,10.0,53,0.00,,,0.00,0,Wunderground v.1.15,2013-04-24 02:40:00,
2013-04-23 22:50:00,54.0,37.2,29.97,SSE,148,8.0,8.0,53,0.00,,,0.00,0,Wunderground v.1.15,2013-04-24 02:50:00,
2013-04-23 23:00:00,53.9,36.7,29.97,SE,138,6.0,6.0,52,0.00,,,0.00,0,Wunderground v.1.15,2013-04-24 03:00:00,
2013-04-23 23:10:00,54.0,36.8,29.97,SSE,166,6.0,6.0,52,0.00,,,0.00,0,Wunderground v.1.15,2013-04-24 03:10:00,
2013-04-23 23:20:00,54.0,36.8,29.96,SSE,161,7.0,7.0,52,0.00,,,0.00,0,Wunderground v.1.15,2013-04-24 03:20:00,
2013-04-23 23:30:00,53.7,36.5,29.96,SSE,147,7.0,7.0,52,0.00,,,0.00,0,Wunderground v.1.15,2013-04-24 03:30:00,
2013-04-23 23:40:00,53.5,36.3,29.95,SE,146,7.0,8.0,52,0.00,,,0.00,0,Wunderground v.1.15,2013-04-24 03:40:00,
2013-04-23 23:50:00,53.2,36.5,29.95,SE,146,6.0,6.0,53,0.00,,,0.00,0,Wunderground v.1.15,2013-04-24 03:50:00,